Weather History for Pinedale, WY

Change the Weather History Date:

Wednesday, November 28, 2012

  Actual Average (KBPI) Record (KBPI)
Temperature  
Mean Temperature 29 °F 17 °F  
Max Temperature 44 °F 31 °F 49 °F (1999)
Min Temperature 14 °F 4 °F -14 °F (1989)
Degree Days  
Heating Degree Days 36 48  
Month to date heating degree days 1139  
Since 1 July heating degree days 2719  
Cooling Degree Days 0 0  
Month to date cooling degree days 0  
Year to date cooling degree days 35  
Moisture  
Dew Point 18 °F    
Average Humidity 73    
Maximum Humidity 100    
Minimum Humidity 33    
Precipitation  
Precipitation 0.00 in 0.01 in 0.05 in (2004)
Month to date precipitation 0.20  
Year to date precipitation 6.17  
Sea Level Pressure  
Sea Level Pressure 30.19 in    
Wind  
Wind Speed 4 mph (WNW)    
Max Wind Speed 7 mph    
Max Gust Speed -    
Visibility 10 miles    
Events      
T = Trace of Precipitation, MM = Missing Value Source: NWS Daily Summary

Daily Weather History Graph

Daily Weather History Graph

Search for Another Location

Airport:

Trip Planner

Search our weather history database for the weather conditions in past years. The results will help you decide how hot, cold, wet, or windy it might be!

Date:

Astronomy

Nov. 28, 2012 Rise Set
Actual Time 7:27 AM MST 4:47 PM MST
Civil Twilight 6:55 AM MST 5:18 PM MST
Nautical Twilight 6:20 AM MST 5:53 PM MST
Astronomical Twilight 5:46 AM MST 6:27 PM MST
Moon 5:04 PM MST (11/28) 7:27 AM MST (11/28)
Length of Visible Light 10h 22m
Length of Day
9h 19m
Full, 100% of the Moon is Illuminated
Nov 28
Full
Dec 6
Last Quarter
Dec 13
New
Dec 19
First Quarter
Dec 28
Full

Hourly Weather History & Observations

Time (MST) Temp. Windchill Dew Point Humidity Pressure Visibility Wind Dir Wind Speed Gust Speed Precip Events Conditions
12:15 AM 19.4 °F 10.4 °F 17.6 °F 93% 30.29 in 10.0 mi NW 6.9 mph - N/A   Clear
12:35 AM 19.4 °F 11.5 °F 17.6 °F 93% 30.29 in 10.0 mi WNW 5.8 mph - N/A   Clear
12:55 AM 17.6 °F 10.7 °F 17.6 °F 100% 30.29 in 10.0 mi WNW 4.6 mph - N/A   Clear
1:15 AM 19.4 °F 11.5 °F 17.6 °F 93% 30.27 in 10.0 mi WNW 5.8 mph - N/A   Clear
1:35 AM 17.6 °F 9.3 °F 15.8 °F 93% 30.27 in 10.0 mi West 5.8 mph - N/A   Clear
1:55 AM 17.6 °F 8.2 °F 15.8 °F 93% 30.27 in 10.0 mi WNW 6.9 mph - N/A   Clear
2:15 AM 17.6 °F 8.2 °F 14.0 °F 86% 30.27 in 10.0 mi WNW 6.9 mph - N/A   Clear
2:35 AM 17.6 °F 8.2 °F 14.0 °F 86% 30.27 in 10.0 mi WNW 6.9 mph - N/A   Scattered Clouds
2:55 AM 15.8 °F 8.6 °F 14.0 °F 93% 30.27 in 10.0 mi WNW 4.6 mph - N/A   Scattered Clouds
3:15 AM 14.0 °F 6.5 °F 14.0 °F 100% 30.27 in 10.0 mi WNW 4.6 mph - N/A   Scattered Clouds
3:35 AM 14.0 °F 3.9 °F 14.0 °F 100% 30.27 in 10.0 mi WNW 6.9 mph - N/A   Scattered Clouds
3:55 AM 14.0 °F 5.1 °F 14.0 °F 100% 30.27 in 10.0 mi West 5.8 mph - N/A   Scattered Clouds
4:15 AM 14.0 °F 3.9 °F 12.2 °F 93% 30.26 in 10.0 mi West 6.9 mph - N/A   Scattered Clouds
4:35 AM 14.0 °F 5.1 °F 12.2 °F 93% 30.26 in 10.0 mi WNW 5.8 mph - N/A   Scattered Clouds
4:55 AM 14.0 °F 6.5 °F 12.2 °F 93% 30.26 in 10.0 mi West 4.6 mph - N/A   Scattered Clouds
5:15 AM 14.0 °F 3.9 °F 12.2 °F 93% 30.27 in 10.0 mi West 6.9 mph - N/A   Mostly Cloudy
5:35 AM 14.0 °F 5.1 °F 12.2 °F 93% 30.27 in 10.0 mi WNW 5.8 mph - N/A   Mostly Cloudy
5:55 AM 14.0 °F 3.9 °F 12.2 °F 93% 30.27 in 10.0 mi NW 6.9 mph - N/A   Scattered Clouds
6:15 AM 14.0 °F 6.5 °F 12.2 °F 93% 30.27 in 10.0 mi West 4.6 mph - N/A   Clear
6:35 AM 14.0 °F 8.2 °F 12.2 °F 93% 30.27 in 10.0 mi WNW 3.5 mph - N/A   Scattered Clouds
6:55 AM 14.0 °F 6.5 °F 12.2 °F 93% 30.27 in 10.0 mi NW 4.6 mph - N/A   Scattered Clouds
7:15 AM 14.0 °F 8.2 °F 12.2 °F 93% 30.27 in 10.0 mi NW 3.5 mph - N/A   Clear
7:35 AM 14.0 °F 8.2 °F 12.2 °F 93% 30.27 in 10.0 mi West 3.5 mph - N/A   Clear
7:55 AM 14.0 °F 5.1 °F 12.2 °F 93% 30.27 in 10.0 mi WNW 5.8 mph - N/A   Clear
8:15 AM 17.6 °F 12.3 °F 14.0 °F 86% 30.27 in 10.0 mi West 3.5 mph - N/A   Clear
8:35 AM 19.4 °F 14.3 °F 15.8 °F 86% 30.27 in 10.0 mi WNW 3.5 mph - N/A   Clear
8:55 AM 19.4 °F 12.8 °F 15.8 °F 86% 30.27 in 10.0 mi West 4.6 mph - N/A   Clear
9:15 AM 21.2 °F 16.4 °F 17.6 °F 86% 30.27 in 10.0 mi West 3.5 mph - N/A   Clear
9:35 AM 24.8 °F 20.5 °F 19.4 °F 80% 30.27 in 10.0 mi West 3.5 mph - N/A   Clear
9:55 AM 26.6 °F 21.2 °F 19.4 °F 74% 30.27 in 10.0 mi West 4.6 mph - N/A   Clear
10:15 AM 30.2 °F - 19.4 °F 64% 30.26 in 10.0 mi Calm Calm - N/A   Clear
10:35 AM 32.0 °F - 19.4 °F 60% 30.26 in 10.0 mi Calm Calm - N/A   Clear
10:55 AM 35.6 °F - 19.4 °F 52% 30.25 in 10.0 mi Calm Calm - N/A   Clear
11:15 AM 35.6 °F 32.8 °F 17.6 °F 48% 30.24 in 10.0 mi ENE 3.5 mph - N/A   Clear
11:55 AM 37.4 °F - 15.8 °F 41% 30.22 in 10.0 mi Calm Calm - N/A   Clear
12:15 PM 41.0 °F - 15.8 °F 36% 30.21 in 10.0 mi Calm Calm - N/A   Clear
12:35 PM 41.0 °F 39.0 °F 14.0 °F 33% 30.21 in 10.0 mi SE 3.5 mph - N/A   Clear
12:55 PM 41.0 °F 38.0 °F 14.0 °F 33% 30.19 in 10.0 mi SE 4.6 mph - N/A   Clear
1:15 PM 41.0 °F - 14.0 °F 33% 30.19 in 10.0 mi Calm Calm - N/A   Clear
1:35 PM 42.8 °F - 15.8 °F 34% 30.17 in 10.0 mi Calm Calm - N/A   Clear
1:55 PM 42.8 °F - 15.8 °F 34% 30.16 in 10.0 mi Calm Calm - N/A   Clear
2:15 PM 44.6 °F 42.2 °F 17.6 °F 34% 30.14 in 10.0 mi ESE 4.6 mph - N/A   Clear
2:35 PM 42.8 °F 40.1 °F 17.6 °F 36% 30.13 in 10.0 mi SSE 4.6 mph - N/A   Clear
2:55 PM 42.8 °F 41.1 °F 17.6 °F 36% 30.12 in 10.0 mi SSE 3.5 mph - N/A   Clear
3:15 PM 42.8 °F 41.1 °F 17.6 °F 36% 30.11 in 10.0 mi SSE 3.5 mph - N/A   Clear
3:35 PM 41.0 °F 39.0 °F 19.4 °F 42% 30.11 in 10.0 mi SE 3.5 mph - N/A   Clear
3:55 PM 37.4 °F - 19.4 °F 48% 30.11 in 10.0 mi Calm Calm - N/A   Clear
4:15 PM 37.4 °F - 19.4 °F 48% 30.11 in 10.0 mi Calm Calm - N/A   Clear
4:35 PM 35.6 °F - 19.4 °F 52% 30.11 in 10.0 mi Calm Calm - N/A   Clear
4:55 PM 33.8 °F - 21.2 °F 60% 30.11 in 10.0 mi Calm Calm - N/A   Clear
5:35 PM 32.0 °F 28.7 °F 21.2 °F 64% 30.11 in 10.0 mi NNE 3.5 mph - N/A   Clear
5:55 PM 32.0 °F - 21.2 °F 64% 30.12 in 10.0 mi Calm Calm - N/A   Clear
6:15 PM 32.0 °F - 19.4 °F 60% 30.11 in 10.0 mi Calm Calm - N/A   Clear
6:35 PM 30.2 °F - 21.2 °F 69% 30.12 in 10.0 mi Calm Calm - N/A   Scattered Clouds
6:55 PM 28.4 °F - 21.2 °F 74% 30.12 in 10.0 mi Calm Calm - N/A   Scattered Clouds
7:15 PM 28.4 °F - 23.0 °F 80% 30.12 in 10.0 mi Calm Calm - N/A   Clear
7:35 PM 30.2 °F 26.7 °F 23.0 °F 75% 30.11 in 10.0 mi East 3.5 mph - N/A   Mostly Cloudy
7:55 PM 30.2 °F - 23.0 °F 75% 30.11 in 10.0 mi Calm Calm - N/A   Overcast
8:15 PM 30.2 °F - 21.2 °F 69% 30.10 in 10.0 mi Calm Calm - N/A   Overcast
8:35 PM 30.2 °F - 23.0 °F 75% 30.10 in 10.0 mi Calm Calm - N/A   Mostly Cloudy
8:55 PM 28.4 °F - 23.0 °F 80% 30.09 in 10.0 mi Calm Calm - N/A   Mostly Cloudy
9:15 PM 28.4 °F - 23.0 °F 80% 30.09 in 10.0 mi Calm Calm - N/A   Mostly Cloudy
9:35 PM 26.6 °F 21.2 °F 21.2 °F 80% 30.09 in 10.0 mi WSW 4.6 mph - N/A   Scattered Clouds
9:55 PM 26.6 °F - 24.8 °F 93% 30.09 in 10.0 mi Calm Calm - N/A   Mostly Cloudy
10:15 PM 26.6 °F 22.6 °F 23.0 °F 86% 30.09 in 10.0 mi WNW 3.5 mph - N/A   Overcast
10:35 PM 28.4 °F - 23.0 °F 80% 30.09 in 10.0 mi Calm Calm - N/A   Overcast
11:15 PM 30.2 °F - 24.8 °F 80% 30.08 in 10.0 mi Calm Calm - N/A   Overcast
11:35 PM 28.4 °F - 23.0 °F 80% 30.07 in 10.0 mi Calm Calm - N/A   Mostly Cloudy
11:55 PM 28.4 °F - 23.0 °F 80% 30.07 in 10.0 mi Calm Calm - N/A   Overcast